FENGYUN 1C DEB, 36244

Orbit data source: Space-Track

FENGYUN 1C DEB, 36244 is space debris in SSO originally from a launch on Mon, 10 May 1999 UTC launched from the Taiyaun Space Center, China (TSC). Fengyun 1C debris stems from the Chinese weather satellite Fengyun-1C, which was intentionally destroyed by a Chinese anti-satellite missile in 2007. This event dramatically increased the amount of space debris, with thousands of trackable fragments posing hazards to satellites and human spaceflight. The Fengyun 1C debris cloud has become a focal point in discussions about space sustainability and the need for international regulations to prevent the creation of new debris.

Loading next visibility...
Identifier
36244, 1999-025DVV
Orbit
SSO
Country
Flag of CNCN / PRC
Related business
Manufacturer
Unknown
Mission
Spacecraft
Bus & Motor
Unknown
Mass
Unknown
Launch date (UTC)
1999-05-10 (27 years ago)
Launch vehicle
Unknown
Launch site
Taiyaun Space Center, China (TSC)
Object type
Payload
Rocket body
Debris
Shape & HBR
Unknown shape, 0.1 m
Radar Cross Section
Small (<0.1 m²)

Expand to show TLE details & history
Last TLE update: 2 days ago

TLE from 2 days ago
0 FENGYUN 1C DEB
1 36244U 99025DVV 26252.27788811  .00002241  00000-0  93316-3 0  9997
2 36244  98.9392  13.0519 0048890 223.0363 136.6989 14.26727535958341
Epoch: 2026-09-09T06:40Z
TLE epoch observation values (Epoch: 2026-09-09T06:40:09.532Z)
Latitude
-0.00001°
Longitude
-75.32006°
Altitude
831.241 km
Speed
7.424 km/s
True Right ascension
00h 52m 12s
True Declination
0° 00' 00"
Sunlit
Object was in full shadow at epoch
Visualization orbit readout
Latitude
Unknown
Longitude
Unknown
Altitude
Unknown
Speed
Unknown
Apparent Right ascension
Unknown
Apparent Declination
Unknown
Sunlit
N/A
Visualization observer readout
Local Sidereal Time
09:13:11
Azimuth
Unknown
Elevation
Unknown
Doppler factor
Unknown
Orbital elements
Apogee altitude
834.944 km
Perigee altitude
764.758 km
Semi-major axis
7,177.988 km
Eccentricity
0.00489
Inclination
98.9392°
RAAN
13.0519°
Arg. of periapsis
223.0363°
True anomaly
137.08142°
Mean anomaly
136.6989°
Eccentric anomaly
136.89033°
Mean motion
3.56894 °/min
Orbital period
100.87 mins
BSTAR
0.00093316
Loading maneuver chart data...
Computing Atmospheric mass density...

Documentation

Showing up to 5 results
|